Location: Unspecified
(0.0000°N, 0.0000°E)
Time: 01:30:21
(UTC+00:00)

Explorer 11/Cluster Stage 4 - Pass Details

Date: 13 December 2018
Orbit: 467 x 1260 km, 28.8° (Epoch: 17 January)

Event Time Altitude Azimuth Distance (km) Brightness Sun altitude
Rises 20:23:32 0° 223° (SW) 4,091 11.2 -33.8°
Reaches altitude 10° 20:26:59 10° 213° (SSW) 3,036 10.2 -34.6°
Enters shadow 20:32:18 29° 170° (S) 1,826 8.5 -35.8°
